Time,TemperatureF,DewpointF,PressureIn,WindDirection,WindDirectionDegrees,WindSpeedMPH,WindSpeedGustMPH,Humidity,HourlyPrecipIn,Conditions,Clouds,dailyrainin,SoftwareType,DateUTC
2013-03-20 00:01:00,57.1,54.2,30.11,N/A,-737280,0.0,0.0,90,0.00,,,0.00,Wunderground v.1.13,2013-03-20 07:01:00,
2013-03-20 00:06:00,57.1,54.2,30.11,N/A,-737280,0.0,0.0,90,0.00,,,0.00,Wunderground v.1.13,2013-03-20 07:06:00,
2013-03-20 00:11:00,57.1,54.2,30.11,N/A,-737280,0.0,0.0,90,0.00,,,0.00,Wunderground v.1.13,2013-03-20 07:11:00,
2013-03-20 00:16:00,57.1,54.2,30.11,N/A,-737280,0.0,0.0,90,0.00,,,0.00,Wunderground v.1.13,2013-03-20 07:16:00,
2013-03-20 00:21:00,57.1,54.2,30.11,N/A,-737280,0.0,0.0,90,0.00,,,0.00,Wunderground v.1.13,2013-03-20 07:21:00,
2013-03-20 00:26:00,57.1,54.2,30.11,N/A,-737280,0.0,0.0,90,0.00,,,0.00,Wunderground v.1.13,2013-03-20 07:26:00,
2013-03-20 00:31:00,57.1,54.2,30.11,N/A,-737280,0.0,0.0,90,0.00,,,0.00,Wunderground v.1.13,2013-03-20 07:31:00,
2013-03-20 00:36:00,57.1,54.2,30.11,N/A,-737280,0.0,0.0,90,0.00,,,0.00,Wunderground v.1.13,2013-03-20 07:36:00,
2013-03-20 00:41:00,57.1,54.2,30.11,N/A,-737280,0.0,0.0,90,0.00,,,0.00,Wunderground v.1.13,2013-03-20 07:41:00,
2013-03-20 00:46:00,57.2,54.3,30.12,N/A,-737280,0.0,0.0,90,0.00,,,0.00,Wunderground v.1.13,2013-03-20 07:46:00,
2013-03-20 00:51:00,57.2,54.3,30.12,N/A,-737280,0.0,0.0,90,0.00,,,0.00,Wunderground v.1.13,2013-03-20 07:51:00,
2013-03-20 00:56:00,57.2,54.3,30.12,N/A,-737280,0.0,0.0,90,0.00,,,0.00,Wunderground v.1.13,2013-03-20 07:56:00,
2013-03-20 01:01:00,57.2,54.3,30.12,N/A,-737280,0.0,0.0,90,0.00,,,0.00,Wunderground v.1.13,2013-03-20 08:01:00,
2013-03-20 01:06:00,57.2,54.3,30.12,N/A,-737280,0.0,0.0,90,0.00,,,0.00,Wunderground v.1.13,2013-03-20 08:06:00,
2013-03-20 01:11:00,57.2,54.3,30.12,N/A,-737280,0.0,0.0,90,0.00,,,0.00,Wunderground v.1.13,2013-03-20 08:11:00,
2013-03-20 01:16:00,57.1,54.2,30.12,N/A,-737280,0.0,0.0,90,0.00,,,0.00,Wunderground v.1.13,2013-03-20 08:16:00,
2013-03-20 01:21:00,57.1,54.2,30.12,N/A,-737280,0.0,0.0,90,0.00,,,0.00,Wunderground v.1.13,2013-03-20 08:21:00,
2013-03-20 01:26:00,57.1,54.2,30.12,N/A,-737280,0.0,0.0,90,0.00,,,0.00,Wunderground v.1.13,2013-03-20 08:26:00,
2013-03-20 01:31:00,57.1,54.2,30.12,N/A,-737280,0.0,0.0,90,0.00,,,0.00,Wunderground v.1.13,2013-03-20 08:31:00,
2013-03-20 01:36:00,57.1,54.2,30.12,N/A,-737280,0.0,0.0,90,0.00,,,0.00,Wunderground v.1.13,2013-03-20 08:36:00,
2013-03-20 01:41:00,57.1,54.2,30.12,N/A,-737280,0.0,0.0,90,0.00,,,0.00,Wunderground v.1.13,2013-03-20 08:41:00,
2013-03-20 01:46:00,56.6,53.7,30.11,N/A,-737280,0.0,0.0,90,0.00,,,0.00,Wunderground v.1.13,2013-03-20 08:46:00,
2013-03-20 01:51:00,56.6,53.7,30.11,N/A,-737280,0.0,0.0,90,0.00,,,0.00,Wunderground v.1.13,2013-03-20 08:51:00,
2013-03-20 01:56:00,56.6,53.7,30.11,N/A,-737280,0.0,0.0,90,0.00,,,0.00,Wunderground v.1.13,2013-03-20 08:56:00,
2013-03-20 02:01:00,56.6,53.7,30.11,N/A,-737280,0.0,0.0,90,0.00,,,0.00,Wunderground v.1.13,2013-03-20 09:01:00,
2013-03-20 02:06:00,56.6,53.7,30.11,N/A,-737280,0.0,0.0,90,0.00,,,0.00,Wunderground v.1.13,2013-03-20 09:06:00,
2013-03-20 02:11:00,56.6,53.7,30.11,N/A,-737280,0.0,0.0,90,0.00,,,0.00,Wunderground v.1.13,2013-03-20 09:11:00,
2013-03-20 02:16:00,56.2,53.3,30.11,N/A,-737280,0.0,0.0,90,0.00,,,0.00,Wunderground v.1.13,2013-03-20 09:16:00,
2013-03-20 02:21:00,56.2,53.3,30.11,N/A,-737280,0.0,0.0,90,0.00,,,0.00,Wunderground v.1.13,2013-03-20 09:21:00,
2013-03-20 02:26:00,56.2,53.3,30.11,N/A,-737280,0.0,0.0,90,0.00,,,0.00,Wunderground v.1.13,2013-03-20 09:26:00,
2013-03-20 02:31:00,56.2,53.3,30.11,N/A,-737280,0.0,0.0,90,0.00,,,0.00,Wunderground v.1.13,2013-03-20 09:31:00,
2013-03-20 02:36:00,56.2,53.3,30.11,N/A,-737280,0.0,0.0,90,0.00,,,0.00,Wunderground v.1.13,2013-03-20 09:36:00,
2013-03-20 02:41:00,56.2,53.3,30.11,N/A,-737280,0.0,0.0,90,0.00,,,0.00,Wunderground v.1.13,2013-03-20 09:41:00,
2013-03-20 02:46:00,55.8,53.2,30.11,N/A,-737280,0.0,0.0,91,0.00,,,0.00,Wunderground v.1.13,2013-03-20 09:46:00,
2013-03-20 02:51:00,55.8,53.2,30.11,N/A,-737280,0.0,0.0,91,0.00,,,0.00,Wunderground v.1.13,2013-03-20 09:51:00,
2013-03-20 02:56:00,55.8,53.2,30.11,N/A,-737280,0.0,0.0,91,0.00,,,0.00,Wunderground v.1.13,2013-03-20 09:56:00,
2013-03-20 03:01:00,55.8,53.2,30.11,N/A,-737280,0.0,0.0,91,0.00,,,0.00,Wunderground v.1.13,2013-03-20 10:01:00,
2013-03-20 03:06:00,55.8,53.2,30.11,N/A,-737280,0.0,0.0,91,0.00,,,0.00,Wunderground v.1.13,2013-03-20 10:06:00,
2013-03-20 03:11:00,55.8,53.2,30.11,N/A,-737280,0.0,0.0,91,0.00,,,0.00,Wunderground v.1.13,2013-03-20 10:11:00,
2013-03-20 03:16:00,55.6,53.0,30.10,N/A,-737280,0.0,0.0,91,0.00,,,0.00,Wunderground v.1.13,2013-03-20 10:16:00,
2013-03-20 03:21:00,55.6,53.0,30.10,N/A,-737280,0.0,0.0,91,0.00,,,0.00,Wunderground v.1.13,2013-03-20 10:21:00,
2013-03-20 03:26:00,55.6,53.0,30.10,N/A,-737280,0.0,0.0,91,0.00,,,0.00,Wunderground v.1.13,2013-03-20 10:26:00,
2013-03-20 03:31:00,55.6,53.0,30.10,N/A,-737280,0.0,0.0,91,0.00,,,0.00,Wunderground v.1.13,2013-03-20 10:31:00,
2013-03-20 03:36:00,55.6,53.0,30.10,N/A,-737280,0.0,0.0,91,0.00,,,0.00,Wunderground v.1.13,2013-03-20 10:36:00,
2013-03-20 03:41:00,55.6,53.0,30.10,N/A,-737280,0.0,0.0,91,0.00,,,0.00,Wunderground v.1.13,2013-03-20 10:41:00,
2013-03-20 03:46:00,54.9,52.3,30.09,N/A,-737280,0.0,0.0,91,0.00,,,0.00,Wunderground v.1.13,2013-03-20 10:46:00,
2013-03-20 03:51:00,54.9,52.3,30.09,N/A,-737280,0.0,0.0,91,0.00,,,0.00,Wunderground v.1.13,2013-03-20 10:51:00,
2013-03-20 03:56:00,54.9,52.3,30.09,N/A,-737280,0.0,0.0,91,0.00,,,0.00,Wunderground v.1.13,2013-03-20 10:56:00,
2013-03-20 04:01:00,54.9,52.3,30.09,N/A,-737280,0.0,0.0,91,0.00,,,0.00,Wunderground v.1.13,2013-03-20 11:01:00,
2013-03-20 04:06:00,54.9,52.3,30.09,N/A,-737280,0.0,0.0,91,0.00,,,0.00,Wunderground v.1.13,2013-03-20 11:06:00,
2013-03-20 04:11:00,54.9,52.3,30.09,N/A,-737280,0.0,0.0,91,0.00,,,0.00,Wunderground v.1.13,2013-03-20 11:11:00,
2013-03-20 04:16:00,54.7,52.4,30.10,N/A,-737280,0.0,0.0,92,0.00,,,0.00,Wunderground v.1.13,2013-03-20 11:16:00,
2013-03-20 04:21:00,54.7,52.4,30.10,N/A,-737280,0.0,0.0,92,0.00,,,0.00,Wunderground v.1.13,2013-03-20 11:21:00,
2013-03-20 04:26:00,54.7,52.4,30.10,N/A,-737280,0.0,0.0,92,0.00,,,0.00,Wunderground v.1.13,2013-03-20 11:26:00,
2013-03-20 04:31:00,54.7,52.4,30.10,N/A,-737280,0.0,0.0,92,0.00,,,0.00,Wunderground v.1.13,2013-03-20 11:31:00,
2013-03-20 04:36:00,54.7,52.4,30.10,N/A,-737280,0.0,0.0,92,0.00,,,0.00,Wunderground v.1.13,2013-03-20 11:36:00,
2013-03-20 04:41:00,54.7,52.4,30.10,N/A,-737280,0.0,0.0,92,0.00,,,0.00,Wunderground v.1.13,2013-03-20 11:41:00,
2013-03-20 04:46:00,55.7,53.7,30.08,N/A,-737280,0.0,0.0,93,0.00,,,0.00,Wunderground v.1.13,2013-03-20 11:46:00,
2013-03-20 04:51:00,55.7,53.7,30.08,N/A,-737280,0.0,0.0,93,0.00,,,0.00,Wunderground v.1.13,2013-03-20 11:51:00,
2013-03-20 04:56:00,55.7,53.7,30.08,N/A,-737280,0.0,0.0,93,0.00,,,0.00,Wunderground v.1.13,2013-03-20 11:56:00,
2013-03-20 05:01:00,55.7,53.7,30.08,N/A,-737280,0.0,0.0,93,0.00,,,0.00,Wunderground v.1.13,2013-03-20 12:01:00,
2013-03-20 05:06:00,55.7,53.7,30.08,N/A,-737280,0.0,0.0,93,0.00,,,0.00,Wunderground v.1.13,2013-03-20 12:06:00,
2013-03-20 05:11:00,55.7,53.7,30.08,N/A,-737280,0.0,0.0,93,0.00,,,0.00,Wunderground v.1.13,2013-03-20 12:11:00,
2013-03-20 05:16:00,54.5,52.5,30.08,SE,135,0.0,5.0,93,0.00,,,0.00,Wunderground v.1.13,2013-03-20 12:16:00,
2013-03-20 05:21:00,54.5,52.5,30.08,SE,135,0.0,5.0,93,0.00,,,0.00,Wunderground v.1.13,2013-03-20 12:21:00,
2013-03-20 05:26:00,54.5,52.5,30.08,SE,135,0.0,5.0,93,0.00,,,0.00,Wunderground v.1.13,2013-03-20 12:26:00,
2013-03-20 05:31:00,54.5,52.5,30.08,SE,135,0.0,5.0,93,0.00,,,0.00,Wunderground v.1.13,2013-03-20 12:31:00,
2013-03-20 05:36:00,54.5,52.5,30.08,SE,135,0.0,5.0,93,0.00,,,0.00,Wunderground v.1.13,2013-03-20 12:36:00,
2013-03-20 05:41:00,54.5,52.5,30.08,SE,135,0.0,5.0,93,0.00,,,0.00,Wunderground v.1.13,2013-03-20 12:41:00,
2013-03-20 05:46:00,54.3,52.3,30.10,N/A,-737280,0.0,0.0,93,0.00,,,0.00,Wunderground v.1.13,2013-03-20 12:46:00,
2013-03-20 05:51:00,54.3,52.3,30.10,N/A,-737280,0.0,0.0,93,0.00,,,0.00,Wunderground v.1.13,2013-03-20 12:51:00,
2013-03-20 05:56:00,54.3,52.3,30.10,N/A,-737280,0.0,0.0,93,0.00,,,0.00,Wunderground v.1.13,2013-03-20 12:56:00,
2013-03-20 06:01:00,54.3,52.3,30.10,N/A,-737280,0.0,0.0,93,0.00,,,0.00,Wunderground v.1.13,2013-03-20 13:01:00,
2013-03-20 06:06:00,54.3,52.3,30.10,N/A,-737280,0.0,0.0,93,0.00,,,0.00,Wunderground v.1.13,2013-03-20 13:06:00,
2013-03-20 06:11:00,54.3,52.3,30.10,N/A,-737280,0.0,0.0,93,0.00,,,0.00,Wunderground v.1.13,2013-03-20 13:11:00,
2013-03-20 06:16:00,55.0,53.0,30.10,N/A,-737280,0.0,0.0,93,0.00,,,0.00,Wunderground v.1.13,2013-03-20 13:16:00,
2013-03-20 06:21:00,55.0,53.0,30.10,N/A,-737280,0.0,0.0,93,0.00,,,0.00,Wunderground v.1.13,2013-03-20 13:21:00,
2013-03-20 06:26:00,55.0,53.0,30.10,N/A,-737280,0.0,0.0,93,0.00,,,0.00,Wunderground v.1.13,2013-03-20 13:26:00,
2013-03-20 06:31:00,55.0,53.0,30.10,N/A,-737280,0.0,0.0,93,0.00,,,0.00,Wunderground v.1.13,2013-03-20 13:31:00,
2013-03-20 06:36:00,55.0,53.0,30.10,N/A,-737280,0.0,0.0,93,0.00,,,0.00,Wunderground v.1.13,2013-03-20 13:36:00,
2013-03-20 06:41:00,55.0,53.0,30.10,N/A,-737280,0.0,0.0,93,0.00,,,0.00,Wunderground v.1.13,2013-03-20 13:41:00,
2013-03-20 06:46:00,55.0,53.0,30.11,N/A,-737280,0.0,0.0,93,0.00,,,0.00,Wunderground v.1.13,2013-03-20 13:46:00,
2013-03-20 06:51:00,55.0,53.0,30.11,N/A,-737280,0.0,0.0,93,0.00,,,0.00,Wunderground v.1.13,2013-03-20 13:51:00,
2013-03-20 06:56:00,55.0,53.0,30.11,N/A,-737280,0.0,0.0,93,0.00,,,0.00,Wunderground v.1.13,2013-03-20 13:56:00,
2013-03-20 07:01:00,55.0,53.0,30.11,N/A,-737280,0.0,0.0,93,0.00,,,0.00,Wunderground v.1.13,2013-03-20 14:01:00,
2013-03-20 07:06:00,55.0,53.0,30.11,N/A,-737280,0.0,0.0,93,0.00,,,0.00,Wunderground v.1.13,2013-03-20 14:06:00,
2013-03-20 07:11:00,55.0,53.0,30.11,N/A,-737280,0.0,0.0,93,0.00,,,0.00,Wunderground v.1.13,2013-03-20 14:11:00,
2013-03-20 07:16:00,53.9,51.9,30.11,N/A,-737280,0.0,0.0,93,0.00,,,0.00,Wunderground v.1.13,2013-03-20 14:16:00,
2013-03-20 07:21:00,53.9,51.9,30.11,N/A,-737280,0.0,0.0,93,0.00,,,0.00,Wunderground v.1.13,2013-03-20 14:21:00,
2013-03-20 07:26:00,53.9,51.9,30.11,N/A,-737280,0.0,0.0,93,0.00,,,0.00,Wunderground v.1.13,2013-03-20 14:26:00,
2013-03-20 07:31:00,53.9,51.9,30.11,N/A,-737280,0.0,0.0,93,0.00,,,0.00,Wunderground v.1.13,2013-03-20 14:31:00,
2013-03-20 07:36:00,53.9,51.9,30.11,N/A,-737280,0.0,0.0,93,0.00,,,0.00,Wunderground v.1.13,2013-03-20 14:36:00,
2013-03-20 07:41:00,53.9,51.9,30.11,N/A,-737280,0.0,0.0,93,0.00,,,0.00,Wunderground v.1.13,2013-03-20 14:41:00,
2013-03-20 07:46:00,54.1,52.4,30.12,SE,135,0.0,3.0,94,0.00,,,0.00,Wunderground v.1.13,2013-03-20 14:46:00,
2013-03-20 07:56:00,54.0,52.0,30.12,SE,141,0.0,0.0,93,0.00,,,0.00,Wunderground v.1.13,2013-03-20 14:56:00,
2013-03-20 08:06:00,54.2,52.5,30.11,South,169,0.0,4.0,94,0.00,,,0.00,Wunderground v.1.13,2013-03-20 15:06:00,
2013-03-20 08:16:00,54.4,52.7,30.11,South,173,0.0,1.0,94,0.00,,,0.00,Wunderground v.1.13,2013-03-20 15:16:00,
2013-03-20 08:21:00,54.6,52.9,30.12,South,173,0.0,0.0,94,0.00,,,0.00,Wunderground v.1.13,2013-03-20 15:21:00,
2013-03-20 08:31:00,55.0,53.3,30.12,South,175,0.0,0.0,94,0.00,,,0.00,Wunderground v.1.13,2013-03-20 15:31:00,
2013-03-20 08:36:00,55.3,53.6,30.11,South,175,0.0,0.0,94,0.00,,,0.00,Wunderground v.1.13,2013-03-20 15:36:00,
2013-03-20 08:51:00,56.0,54.3,30.13,South,175,0.0,0.0,94,0.00,,,0.00,Wunderground v.1.13,2013-03-20 15:51:00,
2013-03-20 09:01:00,56.3,54.6,30.13,South,175,0.0,0.0,94,0.00,,,0.00,Wunderground v.1.13,2013-03-20 16:01:00,
2013-03-20 09:06:00,56.5,54.8,30.13,South,175,0.0,0.0,94,0.00,,,0.00,Wunderground v.1.13,2013-03-20 16:06:00,
2013-03-20 09:11:00,56.8,55.1,30.13,South,175,0.0,0.0,94,0.00,,,0.00,Wunderground v.1.13,2013-03-20 16:11:00,
2013-03-20 09:16:00,57.0,55.3,30.12,South,175,0.0,0.0,94,0.00,,,0.00,Wunderground v.1.13,2013-03-20 16:16:00,
2013-03-20 09:26:00,57.5,55.8,30.13,South,175,0.0,0.0,94,0.00,,,0.00,Wunderground v.1.13,2013-03-20 16:26:00,
2013-03-20 09:31:00,57.7,56.0,30.13,South,175,0.0,0.0,94,0.00,,,0.00,Wunderground v.1.13,2013-03-20 16:31:00,
2013-03-20 09:41:00,57.9,56.2,30.13,South,174,0.0,0.0,94,0.00,,,0.00,Wunderground v.1.13,2013-03-20 16:41:00,
2013-03-20 09:47:00,58.0,56.3,30.14,South,172,0.0,0.0,94,0.00,,,0.00,Wunderground v.1.13,2013-03-20 16:47:00,
2013-03-20 09:56:00,58.0,56.0,30.14,SSE,162,0.0,0.0,93,0.00,,,0.00,Wunderground v.1.13,2013-03-20 16:56:00,
2013-03-20 10:01:00,58.1,56.1,30.14,East,83,0.0,4.0,93,0.00,,,0.00,Wunderground v.1.13,2013-03-20 17:01:00,
2013-03-20 10:11:00,58.0,55.7,30.14,ENE,57,3.0,5.0,92,0.00,,,0.00,Wunderground v.1.13,2013-03-20 17:11:00,
2013-03-20 10:21:00,58.5,56.5,30.14,NE,56,2.0,3.0,93,0.00,,,0.00,Wunderground v.1.13,2013-03-20 17:21:00,
2013-03-20 10:31:00,58.4,56.1,30.14,ENE,63,2.0,2.0,92,0.00,,,0.00,Wunderground v.1.13,2013-03-20 17:31:00,
2013-03-20 10:41:00,58.8,56.5,30.14,East,84,1.0,4.0,92,0.00,,,0.00,Wunderground v.1.13,2013-03-20 17:41:00,
2013-03-20 10:51:00,58.8,56.2,30.15,NE,47,1.0,1.0,91,0.00,,,0.00,Wunderground v.1.13,2013-03-20 17:51:00,
2013-03-20 11:01:00,59.2,56.6,30.15,NNE,30,2.0,2.0,91,0.00,,,0.00,Wunderground v.1.13,2013-03-20 18:01:00,
2013-03-20 11:11:00,59.4,56.5,30.14,NNE,28,2.0,6.0,90,0.00,,,0.00,Wunderground v.1.13,2013-03-20 18:11:00,
2013-03-20 11:21:00,59.8,56.6,30.14,NE,42,1.0,1.0,89,0.00,,,0.00,Wunderground v.1.13,2013-03-20 18:21:00,
2013-03-20 11:31:00,60.2,56.9,30.13,NNE,28,0.0,0.0,89,0.00,,,0.00,Wunderground v.1.13,2013-03-20 18:31:00,
2013-03-20 11:36:00,60.5,56.9,30.13,NNE,13,0.0,0.0,88,0.00,,,0.00,Wunderground v.1.13,2013-03-20 18:36:00,
2013-03-20 11:46:00,60.6,57.0,30.13,NNW,342,1.0,1.0,88,0.00,,,0.00,Wunderground v.1.13,2013-03-20 18:46:00,
2013-03-20 11:51:00,61.1,57.2,30.13,NNW,348,0.0,0.0,87,0.00,,,0.00,Wunderground v.1.13,2013-03-20 18:51:00,
2013-03-20 11:56:00,61.6,57.4,30.12,NNW,340,0.0,0.0,86,0.00,,,0.00,Wunderground v.1.13,2013-03-20 18:56:00,
2013-03-20 12:06:00,62.0,57.4,30.13,NNW,340,0.0,0.0,85,0.00,,,0.00,Wunderground v.1.13,2013-03-20 19:06:00,
2013-03-20 12:21:00,62.6,57.4,30.12,NNE,17,0.0,0.0,83,0.00,,,0.00,Wunderground v.1.13,2013-03-20 19:21:00,
2013-03-20 12:31:00,63.0,57.4,30.11,NNE,23,0.0,0.0,82,0.00,,,0.00,Wunderground v.1.13,2013-03-20 19:31:00,
2013-03-20 12:46:00,64.6,58.3,30.11,NNW,327,1.0,1.0,80,0.00,,,0.00,Wunderground v.1.13,2013-03-20 19:46:00,
2013-03-20 12:56:00,64.0,57.0,30.12,NNW,327,2.0,7.0,78,0.00,,,0.00,Wunderground v.1.13,2013-03-20 19:56:00,
2013-03-20 13:01:00,63.4,56.8,30.11,NNW,333,2.0,2.0,79,0.00,,,0.00,Wunderground v.1.13,2013-03-20 20:01:00,
2013-03-20 13:26:00,62.8,56.5,30.11,NNE,33,1.0,5.0,80,0.00,,,0.00,Wunderground v.1.13,2013-03-20 20:26:00,
2013-03-20 14:06:00,62.6,56.3,30.10,NE,46,4.0,4.0,80,0.00,,,0.00,Wunderground v.1.13,2013-03-20 21:06:00,
2013-03-20 14:31:00,62.8,55.1,30.08,ENE,64,1.0,1.0,76,0.00,,,0.00,Wunderground v.1.13,2013-03-20 21:31:00,
2013-03-20 14:41:00,63.3,56.0,30.08,North,355,1.0,1.0,77,0.00,,,0.00,Wunderground v.1.13,2013-03-20 21:41:00,
2013-03-20 15:06:00,62.8,55.8,30.07,NNW,337,1.0,1.0,78,0.00,,,0.00,Wunderground v.1.13,2013-03-20 22:06:00,
2013-03-20 15:16:00,62.1,55.9,30.07,NNW,333,2.0,2.0,80,0.00,,,0.00,Wunderground v.1.13,2013-03-20 22:16:00,
2013-03-20 15:21:00,62.3,56.0,30.06,NNW,334,1.0,1.0,80,0.00,,,0.00,Wunderground v.1.13,2013-03-20 22:21:00,
2013-03-20 15:31:00,63.0,56.0,30.07,NNW,337,0.0,0.0,78,0.00,,,0.00,Wunderground v.1.13,2013-03-20 22:31:00,
2013-03-20 15:41:00,62.9,55.2,30.06,NNW,338,0.0,0.0,76,0.00,,,0.00,Wunderground v.1.13,2013-03-20 22:41:00,
2013-03-20 15:51:00,63.5,55.4,30.05,NNW,338,0.0,0.0,75,0.00,,,0.00,Wunderground v.1.13,2013-03-20 22:51:00,
2013-03-20 16:01:00,63.0,55.3,30.05,NNW,341,0.0,0.0,76,0.00,,,0.00,Wunderground v.1.13,2013-03-20 23:01:00,
2013-03-20 16:06:00,63.0,55.3,30.05,NNW,341,0.0,0.0,76,0.00,,,0.00,Wunderground v.1.13,2013-03-20 23:06:00,
2013-03-20 16:11:00,62.9,55.2,30.05,NNW,340,0.0,0.0,76,0.00,,,0.00,Wunderground v.1.13,2013-03-20 23:11:00,
2013-03-20 16:16:00,62.5,55.2,30.04,NNW,337,1.0,1.0,77,0.00,,,0.00,Wunderground v.1.13,2013-03-20 23:16:00,
2013-03-20 16:26:00,62.4,55.1,30.04,NNW,338,0.0,0.0,77,0.00,,,0.00,Wunderground v.1.13,2013-03-20 23:26:00,
2013-03-20 16:31:00,62.2,54.9,30.04,NNW,338,1.0,4.0,77,0.00,,,0.00,Wunderground v.1.13,2013-03-20 23:31:00,
2013-03-20 16:46:00,61.5,53.9,30.03,North,360,4.0,5.0,76,0.00,,,0.00,Wunderground v.1.13,2013-03-20 23:46:00,
2013-03-20 16:56:00,61.5,54.6,30.03,NNW,346,4.0,4.0,78,0.00,,,0.00,Wunderground v.1.13,2013-03-20 23:56:00,
2013-03-20 17:01:00,61.5,54.9,30.03,NNW,346,3.0,3.0,79,0.00,,,0.00,Wunderground v.1.13,2013-03-21 00:01:00,
2013-03-20 17:11:00,61.5,54.9,30.04,NNW,341,1.0,3.0,79,0.00,,,0.00,Wunderground v.1.13,2013-03-21 00:11:00,
2013-03-20 17:16:00,61.5,55.3,30.03,NNW,336,3.0,6.0,80,0.00,,,0.00,Wunderground v.1.13,2013-03-21 00:16:00,
2013-03-20 17:26:00,61.4,55.2,30.03,NNW,339,3.0,3.0,80,0.00,,,0.00,Wunderground v.1.13,2013-03-21 00:26:00,
2013-03-20 17:41:00,61.6,55.4,30.03,NNW,328,3.0,3.0,80,0.00,,,0.00,Wunderground v.1.13,2013-03-21 00:41:00,
2013-03-20 17:46:00,61.7,55.5,30.03,NNW,336,2.0,2.0,80,0.00,,,0.00,Wunderground v.1.13,2013-03-21 00:46:00,
2013-03-20 18:06:00,61.9,55.7,30.02,NW,313,3.0,3.0,80,0.00,,,0.00,Wunderground v.1.13,2013-03-21 01:06:00,
2013-03-20 18:11:00,61.8,55.6,30.02,NW,311,3.0,3.0,80,0.00,,,0.00,Wunderground v.1.13,2013-03-21 01:11:00,
2013-03-20 18:21:00,61.6,55.0,30.02,NW,319,3.0,3.0,79,0.00,,,0.00,Wunderground v.1.13,2013-03-21 01:21:00,
2013-03-20 18:46:00,61.9,55.3,30.02,NW,318,1.0,1.0,79,0.00,,,0.00,Wunderground v.1.13,2013-03-21 01:46:00,
2013-03-20 18:56:00,62.0,55.4,30.02,NW,318,0.0,0.0,79,0.00,,,0.00,Wunderground v.1.13,2013-03-21 01:56:00,
2013-03-20 19:06:00,61.9,55.0,30.02,NW,318,0.0,0.0,78,0.00,,,0.00,Wunderground v.1.13,2013-03-21 02:06:00,
2013-03-20 19:11:00,61.9,55.3,30.02,NW,318,0.0,0.0,79,0.00,,,0.00,Wunderground v.1.13,2013-03-21 02:11:00,
2013-03-20 19:36:00,61.5,54.2,30.02,NW,319,0.0,0.0,77,0.00,,,0.00,Wunderground v.1.13,2013-03-21 02:36:00,
2013-03-20 19:56:00,61.3,54.4,30.02,NW,319,0.0,0.0,78,0.00,,,0.00,Wunderground v.1.13,2013-03-21 02:56:00,
2013-03-20 20:16:00,61.4,54.5,30.02,NW,319,0.0,0.0,78,0.00,,,0.00,Wunderground v.1.13,2013-03-21 03:16:00,
2013-03-20 20:21:00,61.4,54.5,30.02,NW,319,0.0,0.0,78,0.00,,,0.00,Wunderground v.1.13,2013-03-21 03:21:00,
2013-03-20 20:46:00,61.3,54.7,30.02,NW,319,0.0,0.0,79,0.00,,,0.00,Wunderground v.1.13,2013-03-21 03:46:00,
2013-03-20 20:51:00,61.2,54.6,30.02,NW,319,0.0,0.0,79,0.00,,,0.00,Wunderground v.1.13,2013-03-21 03:51:00,
2013-03-20 21:06:00,60.8,54.6,30.02,NW,319,0.0,0.0,80,0.00,,,0.00,Wunderground v.1.13,2013-03-21 04:06:00,
2013-03-20 21:11:00,60.7,54.5,30.02,NW,319,0.0,0.0,80,0.00,,,0.00,Wunderground v.1.13,2013-03-21 04:11:00,
2013-03-20 21:41:00,60.0,53.8,30.01,NW,319,0.0,0.0,80,0.00,,,0.00,Wunderground v.1.13,2013-03-21 04:41:00,
2013-03-20 21:51:00,59.8,54.0,30.01,NW,319,0.0,0.0,81,0.00,,,0.00,Wunderground v.1.13,2013-03-21 04:51:00,
2013-03-20 21:56:00,59.7,53.9,30.02,NW,319,0.0,0.0,81,0.00,,,0.00,Wunderground v.1.13,2013-03-21 04:56:00,
2013-03-20 22:06:00,59.4,53.6,30.02,NW,319,0.0,0.0,81,0.00,,,0.00,Wunderground v.1.13,2013-03-21 05:06:00,
2013-03-20 22:11:00,59.3,53.8,30.02,NW,319,0.0,0.0,82,0.00,,,0.00,Wunderground v.1.13,2013-03-21 05:11:00,
2013-03-20 22:21:00,59.1,53.6,30.01,NW,319,0.0,0.0,82,0.00,,,0.00,Wunderground v.1.13,2013-03-21 05:21:00,
2013-03-20 22:26:00,59.0,53.5,30.01,NW,319,0.0,0.0,82,0.00,,,0.00,Wunderground v.1.13,2013-03-21 05:26:00,
2013-03-20 22:46:00,58.3,53.2,30.01,NW,319,0.0,0.0,83,0.00,,,0.00,Wunderground v.1.13,2013-03-21 05:46:00,
2013-03-20 23:01:00,58.0,52.9,30.01,NW,319,0.0,0.0,83,0.00,,,0.00,Wunderground v.1.13,2013-03-21 06:01:00,
2013-03-20 23:11:00,57.7,52.6,30.00,NW,319,0.0,0.0,83,0.00,,,0.00,Wunderground v.1.13,2013-03-21 06:11:00,
2013-03-20 23:21:00,57.4,52.6,30.01,NW,319,0.0,0.0,84,0.00,,,0.00,Wunderground v.1.13,2013-03-21 06:21:00,
2013-03-20 23:31:00,57.2,52.4,30.01,NW,319,0.0,0.0,84,0.00,,,0.00,Wunderground v.1.13,2013-03-21 06:31:00,
2013-03-20 23:36:00,56.9,52.1,30.01,NW,318,0.0,0.0,84,0.00,,,0.00,Wunderground v.1.13,2013-03-21 06:36:00,
2013-03-20 23:46:00,56.6,51.8,30.00,NW,317,0.0,0.0,84,0.00,,,0.00,Wunderground v.1.13,2013-03-21 06:46:00,
2013-03-20 23:56:00,56.3,51.8,30.00,NW,317,0.0,0.0,85,0.00,,,0.00,Wunderground v.1.13,2013-03-21 06:56:00,